www.pogodaiklimat.ru
ПОГОДА в Нэшвилле
Время
и дата
00:15 22.06
00:35 22.06
00:55 22.06
01:15 22.06
01:35 22.06
01:55 22.06
02:15 22.06
02:35 22.06
02:55 22.06
03:15 22.06
03:35 22.06
03:55 22.06
04:15 22.06
04:35 22.06
04:55 22.06
05:15 22.06
05:35 22.06
05:40 22.06
05:50 22.06
06:50 22.06
07:50 22.06
08:50 22.06
09:50 22.06
10:50 22.06
11:50 22.06
12:50 22.06
13:50 22.06
14:50 22.06
15:50 22.06
16:50 22.06
18:50 22.06
19:55 22.06
20:15 22.06
20:35 22.06
20:55 22.06
21:15 22.06
21:35 22.06
21:55 22.06
22:15 22.06
22:35 22.06
22:55 22.06
23:15 22.06
23:35 22.06
23:55 22.06
00:15 23.06
00:35 23.06
00:55 23.06
01:15 23.06
Ветер
(напр.,м/с)
Видим. Явления Облачность Т
(С)
Тd
(С)
f
(%)
Тe
(С)
Тes
(С)
Комфортность P
(гПа)
Po
(гПа)
Тmin
(С)
Tmax
(С)
R
(мм)
R24
(мм)
S
(см)
штиль 0 16 км 8/0 2850 m
[Ac]
+24.0 +23.0 94 +32 +32 очень
душно
1001.3
штиль 0 16 км 8/0 2850 m
[Ac]
+24.0 +23.0 94 +32 +32 очень
душно
1001.3
штиль 0 16 км 8/0 2850 m
[Ac]
+23.0 +22.0 94 +31 +31 очень
душно
1001.0
штиль 0 16 км 10/2 1950 m
[Ac]
+23.0 +23.0 100 +32 +32 очень
душно
1001.0
штиль 0 16 км 8/0 2850 m
[Ac]
+23.0 +23.0 100 +32 +32 очень
душно
1001.0
штиль 0 16 км 8/2 1800 m
[Ac]
+23.0 +22.0 94 +31 +31 очень
душно
1001.3
штиль 0 14 км 10/5 1800 m
[Ac]
+23.0 +22.0 94 +31 +31 очень
душно
1001.3
штиль 0 16 км 8/0 3000 m
[Ac]
+23.0 +22.0 94 +31 +31 очень
душно
1001.3
штиль 0 14 км 2/0 3000 m
[Ac]
+23.0 +22.0 94 +31 +31 очень
душно
1001.3
штиль 0 13 км ясно +23.0 +22.0 94 +31 +31 очень
душно
1001.3
штиль 0 8 км дымка ясно +22.0 +22.0 100 +29 +29 очень
душно
1001.3
штиль 0 13 км 5/0 3000 m
[Ac]
+23.0 +22.0 94 +31 +31 очень
душно
1001.3
штиль 0 14 км 2/0 3000 m
[Ac]
+23.0 +22.0 94 +31 +31 очень
душно
1001.3
штиль 0 11 км ясно +22.0 +21.0 94 +28 +28 душно 1001.3
штиль 0 8 км дымка ясно +22.0 +22.0 100 +29 +29 очень
душно
1001.3
штиль 0 6 км дымка ясно +22.0 +22.0 100 +29 +29 очень
душно
1001.3
штиль 0 10 км дымка ясно +23.0 +22.0 94 +31 +31 очень
душно
1001.3
штиль 0 11 км ясно +23.0 +22.0 94 +31 +31 очень
душно
1001.3
штиль 0 10 км ясно +23.0 +22.0 94 +31 +31 очень
душно
1001.3
штиль 0 16 км 2/0 3000 m
[Ac]
+26.0 +23.0 84 +35 +37 очень
душно
1001.3
штиль 0 16 км ясно +30.0 +23.0 66 +40 +46 очень
душно
1001.0
ЮЗ 2 16 км ясно +29.0 +23.0 70 +39 +48 очень
душно
1001.0
штиль 0 16 км ясно +31.0 +22.0 59 +40 +58 опасность
солнечного
удара
1000.6
З 2 16 км ясно +34.0 +21.0 47 +41 +59 опасность
перегрева
1000.0
З 3
{5}
16 км ясно +34.0 +19.0 41 +39 +56 опасность
солнечного
удара
999.0
З 3
{6}
16 км ясно +35.0 +19.0 39 +40 +57 опасность
солнечного
удара
998.6
З 5 16 км ясно +36.0 +19.0 37 +41 +51 опасность
перегрева
998.0
З 4
{7}
16 км ясно +35.0 +20.0 42 +41 +52 опасность
перегрева
997.3
З 5 16 км ясно +35.0 +19.0 39 +40 +46 очень
душно
997.0
З 3 16 км ясно +34.0 +20.0 44 +40 +46 очень
душно
996.6
штиль 0 16 км 5/0 2100 m
[Ac]
+30.0 +22.0 62 +39 +39 очень
душно
996.3
штиль 0 16 км ясно +28.0 +22.0 70 +36 +36 очень
душно
996.3
штиль 0 16 км ясно +27.0 +22.0 74 +35 +35 очень
душно
996.3
штиль 0 16 км ясно +27.0 +23.0 79 +36 +36 очень
душно
996.3
штиль 0 16 км ясно +27.0 +22.0 74 +35 +35 очень
душно
996.3
штиль 0 16 км ясно +26.0 +22.0 79 +34 +34 очень
душно
996.3
штиль 0 16 км ясно +26.0 +22.0 79 +34 +34 очень
душно
996.3
штиль 0 16 км ясно +25.0 +22.0 83 +32 +32 очень
душно
996.3
штиль 0 16 км ясно +25.0 +22.0 83 +32 +32 очень
душно
996.3
штиль 0 16 км ясно +25.0 +22.0 83 +32 +32 очень
душно
996.3
штиль 0 16 км ясно +25.0 +22.0 83 +32 +32 очень
душно
996.3
штиль 0 16 км ясно +25.0 +22.0 83 +32 +32 очень
душно
996.3
штиль 0 16 км ясно +24.0 +21.0 83 +30 +30 очень
душно
996.0
штиль 0 16 км ясно +24.0 +22.0 89 +31 +31 очень
душно
996.0
штиль 0 16 км ясно +23.0 +22.0 94 +31 +31 очень
душно
996.0
штиль 0 16 км ясно +23.0 +22.0 94 +31 +31 очень
душно
996.0
штиль 0 16 км ясно +23.0 +22.0 94 +31 +31 очень
душно
995.6
штиль 0 16 км ясно +23.0 +22.0 94 +31 +31 очень
душно
995.6
Местоположение метеостанции John C Tune Airport: широта 36.1852 долгота -86.8833 высота над уровнем моря 149 м.
В архиве по умолчанию представлена погода в Нэшвилле за последние 1-2 суток. Обновление информации о фактической погоде в базе происходит ежечасно! Архивные данные за месяц целиком и за предыдущие месяцы Вы можете получить, выбрав интересующий диапазон дат из раскрывающегося списка и нажав кнопку "Ввод!".
Внимание! Архив погоды МЕТАР в базе сайта по станциям, не включенным в климатический монитор, хранится не более 60 дней. Нет смысла пытаться выбрать более раннюю дату.
*Определитесь, кто Вы:
Внимание! Время в таблицах - местное (без учета летнего времени). Для получения всемирного времени необходимо вычесть поправку, которая равна -6 ч.
Смотрите также архив погоды в соседних городах и на ближайших метеорологических станциях:
Партнеры нашего сайта:      
Пояснения к столбцам:
  • Ветер - указаны скорость ветра в м/с - средняя за 10 мин, порывы в срок и между сроками (в фигурных скобках) и направление, откуда дует ветер: С - северный,
  • СВ - северо-восточный, В - восточный, ЮВ - юго-восточный, Ю - южный, ЮЗ - юго-западный, З - западный, СЗ - северо-западный.
  • Видимость - горизонтальная дальность видимости в метрах или километрах. При видимости от 1 до 10 км при отсутствии осадков обычно наблюдается дымка, при ухудшении видимости до 1 км и менее - туман. В сухую погоду видимость может ухудшаться дымом, пылью или мглою.
  • Явления - указаны атмосферные явления, наблюдавшиеся в срок или в последний час перед сроком; фигурными скобками обозначены явления, наблюдавшиеся между сроками (за 1-3 часа до срока); квадратными скобками обозначены град или гололедные отложения с указанием их диаметра в мм.
  • Облачность - указаны через наклонную черту общая и нижняя облачность в баллах и высота нижней границы облаков в метрах; квадратными скобками обозначены формы облаков: Ci - перистые, Cs - перисто-слоистые, Cc - перисто-кучевые, Ac - высококучевые, As - высокослоистые, Sc - слоисто-кучевые, Ns - слоисто-дождевые, Cu - кучевые, Cb - кучево-дождевые. Подробнее классификацию облаков см. в Атласе облаков (PDF).
  • T - Температура воздуха - температура, измеренная на высоте 2 м над землей.
  • Td - Температура точки росы - температура, при понижении до которой содержащийся в воздухе водяной пар достигнет насыщения.
  • f - Относительная влажность воздуха - влажноcть воздуха, измеренная на высоте 2 м над землей.
  • Te - Эффективная температура - температура, которую ощущает одетый по сезону человек в тени. Характеристика душности погоды. При расчете учитывается влияние влажности воздуха и скорости ветра на теплоощущения человека.
  • Tes - Эффективная температура на солнце - температура, которую ощущает человек, с поправкой на солнечный нагрев. Характеристика знойности погоды. Зависит от высоты солнца над горизонтом, облачности и скорости ветра. Ночью, в пасмурную погоду, а также при ветре 12 м/с и более поправка равна нулю.
  • P - Атмосферное давление - приведенное к уровню моря атмосферное давление.
  • Po - Атмосферное давление - измеренное на уровне метеостанции атмосферное давление.
  • Tmin - Минимальная температура - минимум температуры воздуха на высоте 2 м над землей.
  • Tmax - Максимальная температура - максимум температуры воздуха на высоте 2 м над землей.
  • R - Количество осадков - Количество выпавших осадков за период времени, мм. При наведении курсора мыши на число - период времени, за который выпало указанное количество осадков.
  • R24 - Количество осадков - Количество выпавших осадков за 24 часа, мм.
  • S - Снежный покров - Высота снежного покрова, см. При наведении курсора мыши на число - состояние снежного покрова и степень покрытия местности в баллах.